TAX73JC EDDH-ENTC

Flight info

Callsign TAX73JC
Flight time 2h 15m
Altitude 36000
Route ELSOB3C ELSOB Y348 OMWEG DCT BADOS DCT DOSUR/N0469F350 DCT VIPPA/N0474F360 DCT TOR/N0476F350 DCT EKTAK DCT SOMUB DCT PENNO DCT ATWEG
Aircraft B77L/H-SDE1E2E3FGHIJ2J3J4J5M1RWXY/LB1D1

Departure

Time 2026-05-06 13:48
Airport Hamburg Helmut Schmidt Airport (EDDH)

Arrival

Time 2026-05-06 16:04
Airport Tromsø Airport (ENTC)
Time Latitude Longitude Altitude Speed Heading
2026-05-06 13:20 53.62779 9.99129 48 ft 0 kts 62°
2026-05-06 13:37 53.62779 9.99127 51 ft 2 kts 62°
2026-05-06 13:38 53.62768 9.99088 49 ft 4 kts 71°
2026-05-06 13:38 53.62761 9.99045 44 ft 4 kts 85°
2026-05-06 13:38 53.62763 9.99001 44 ft 4 kts 119°
2026-05-06 13:38 53.62771 9.98983 51 ft 0 kts 153°
2026-05-06 13:41 53.62754 9.98998 46 ft 7 kts 153°
2026-05-06 13:41 53.62681 9.99060 47 ft 14 kts 153°
2026-05-06 13:42 53.62593 9.99124 50 ft 14 kts 180°
2026-05-06 13:42 53.62550 9.98988 51 ft 14 kts 259°
2026-05-06 13:42 53.62532 9.98824 47 ft 14 kts 259°
2026-05-06 13:42 53.62514 9.98660 49 ft 14 kts 259°
2026-05-06 13:43 53.62495 9.98496 46 ft 14 kts 259°
2026-05-06 13:43 53.62476 9.98333 46 ft 14 kts 259°
2026-05-06 13:43 53.62451 9.98171 48 ft 15 kts 249°
2026-05-06 13:43 53.62393 9.98016 47 ft 16 kts 231°
2026-05-06 13:44 53.62320 9.97868 45 ft 16 kts 230°
2026-05-06 13:44 53.62247 9.97720 47 ft 16 kts 230°
2026-05-06 13:44 53.62174 9.97572 51 ft 16 kts 231°
2026-05-06 13:44 53.62101 9.97423 49 ft 16 kts 231°
2026-05-06 13:45 53.62027 9.97277 47 ft 16 kts 230°
2026-05-06 13:45 53.61882 9.96980 49 ft 16 kts 230°
2026-05-06 13:45 53.61809 9.96832 48 ft 16 kts 230°
2026-05-06 13:46 53.61735 9.96685 51 ft 16 kts 230°
2026-05-06 13:46 53.61670 9.96530 46 ft 16 kts 256°
2026-05-06 13:46 53.61737 9.96413 49 ft 16 kts
2026-05-06 13:46 53.61829 9.96400 49 ft 8 kts 352°
2026-05-06 13:47 53.61865 9.96449 49 ft 0 kts 50°
2026-05-06 13:47 53.61874 9.96469 49 ft 16 kts 50°
2026-05-06 13:47 53.62118 9.96961 45 ft 92 kts 50°
2026-05-06 13:48 53.62665 9.98070 45 ft 151 kts 50°
2026-05-06 13:48 53.63357 9.99482 489 ft 160 kts 51°
2026-05-06 13:48 53.64072 10.00928 1142 ft 161 kts 50°
2026-05-06 13:48 53.64826 10.02456 1506 ft 182 kts 50°
2026-05-06 13:49 53.65691 10.04212 1793 ft 208 kts 50°
2026-05-06 13:49 53.66667 10.06195 2231 ft 226 kts 51°
2026-05-06 13:49 53.67707 10.08227 2984 ft 232 kts 42°
2026-05-06 13:49 53.69183 10.09440 3688 ft 247 kts 13°
2026-05-06 13:50 53.70940 10.09207 4392 ft 264 kts 341°
2026-05-06 13:50 53.72402 10.07291 4955 ft 276 kts 309°
2026-05-06 13:50 53.73368 10.04459 5007 ft 280 kts 299°
2026-05-06 13:50 53.74263 10.01515 5702 ft 281 kts 300°
2026-05-06 13:51 53.75010 9.98519 6441 ft 283 kts 279°
2026-05-06 13:51 53.74837 9.95202 7093 ft 290 kts 249°
2026-05-06 13:51 53.74035 9.92074 7864 ft 290 kts 246°
2026-05-06 13:51 53.73221 9.88963 8724 ft 292 kts 246°
2026-05-06 13:52 53.72413 9.85845 9553 ft 289 kts 247°
2026-05-06 13:52 53.71610 9.82734 9891 ft 289 kts 246°
2026-05-06 13:52 53.70805 9.79600 9881 ft 293 kts 247°
2026-05-06 13:52 53.70001 9.76431 9882 ft 294 kts 247°
2026-05-06 13:53 53.69199 9.73259 9879 ft 293 kts 247°
2026-05-06 13:53 53.68400 9.70106 9878 ft 292 kts 247°
2026-05-06 13:53 53.67604 9.66961 9884 ft 290 kts 248°
2026-05-06 13:53 53.67212 9.63702 9870 ft 285 kts 276°
2026-05-06 13:54 53.67851 9.60533 10205 ft 294 kts 303°
2026-05-06 13:54 53.69270 9.57894 10381 ft 315 kts 319°
2026-05-06 13:54 53.71017 9.55449 10535 ft 335 kts 327°
2026-05-06 13:54 53.73226 9.53863 10713 ft 358 kts 347°
2026-05-06 13:55 53.75733 9.53122 11223 ft 373 kts 353°
2026-05-06 13:55 53.78349 9.52603 11904 ft 385 kts 354°
2026-05-06 13:55 53.81029 9.52068 12782 ft 392 kts 353°
2026-05-06 13:55 53.83750 9.51461 13687 ft 398 kts 353°
2026-05-06 13:56 53.86512 9.50752 14489 ft 404 kts 351°
2026-05-06 13:56 53.89310 9.49964 15246 ft 410 kts 349°
2026-05-06 13:56 53.92138 9.49128 16074 ft 415 kts 349°
2026-05-06 13:56 53.94990 9.48253 16938 ft 418 kts 348°
2026-05-06 13:57 53.97866 9.47369 17763 ft 423 kts 348°
2026-05-06 13:57 54.00741 9.46466 18523 ft 427 kts 348°
2026-05-06 13:57 54.03674 9.45549 19278 ft 430 kts 348°
2026-05-06 13:57 54.06637 9.44624 19913 ft 436 kts 348°
2026-05-06 13:58 54.09641 9.43686 20570 ft 441 kts 348°
2026-05-06 13:58 54.12670 9.42740 21322 ft 443 kts 348°
2026-05-06 13:58 54.15719 9.41785 21974 ft 449 kts 348°
2026-05-06 13:58 54.18808 9.40815 22596 ft 454 kts 348°
2026-05-06 13:59 54.21934 9.39833 23272 ft 458 kts 348°
2026-05-06 13:59 54.25079 9.38843 23860 ft 462 kts 348°
2026-05-06 13:59 54.28247 9.37845 24409 ft 465 kts 348°
2026-05-06 13:59 54.31448 9.36835 24958 ft 469 kts 348°
2026-05-06 14:00 54.34670 9.35817 25495 ft 473 kts 348°
2026-05-06 14:00 54.37919 9.34788 26028 ft 477 kts 348°
2026-05-06 14:00 54.41198 9.33749 26535 ft 481 kts 347°
2026-05-06 14:00 54.44509 9.32697 27012 ft 486 kts 347°
2026-05-06 14:01 54.47848 9.31634 27504 ft 490 kts 347°
2026-05-06 14:01 54.51207 9.30563 28005 ft 493 kts 348°
2026-05-06 14:01 54.54595 9.29481 28486 ft 497 kts 348°
2026-05-06 14:01 54.58007 9.28390 28972 ft 500 kts 348°
2026-05-06 14:02 54.61440 9.27290 29408 ft 504 kts 348°
2026-05-06 14:02 54.64885 9.26186 29950 ft 504 kts 348°
2026-05-06 14:02 54.68333 9.25079 30459 ft 504 kts 347°
2026-05-06 14:02 54.71776 9.23970 30991 ft 502 kts 347°
2026-05-06 14:03 54.75203 9.22865 31554 ft 500 kts 347°
2026-05-06 14:03 54.78618 9.21767 32127 ft 498 kts 347°
2026-05-06 14:03 54.82025 9.20695 32674 ft 497 kts 348°
2026-05-06 14:03 54.85468 9.20089 33152 ft 498 kts 355°
2026-05-06 14:04 54.88933 9.20069 33650 ft 499 kts
2026-05-06 14:04 54.92383 9.20658 34119 ft 498 kts
2026-05-06 14:04 54.95825 9.21468 34458 ft 499 kts
2026-05-06 14:04 54.99266 9.22310 34767 ft 500 kts
2026-05-06 14:05 55.02729 9.23159 34889 ft 505 kts
2026-05-06 14:05 55.06212 9.23999 34932 ft 506 kts
2026-05-06 14:05 55.13149 9.25634 34929 ft 500 kts
2026-05-06 14:06 55.20016 9.27221 34949 ft 497 kts
2026-05-06 14:06 55.26879 9.28803 34940 ft 497 kts
2026-05-06 14:07 55.33739 9.30392 34943 ft 498 kts
2026-05-06 14:07 55.40614 9.31993 34940 ft 499 kts
2026-05-06 14:08 55.47501 9.33604 34945 ft 500 kts
2026-05-06 14:08 55.54409 9.35225 34941 ft 501 kts
2026-05-06 14:09 55.61333 9.36856 34936 ft 502 kts
2026-05-06 14:09 55.68268 9.38496 34915 ft 503 kts
2026-05-06 14:10 55.75211 9.40143 34917 ft 503 kts
2026-05-06 14:10 55.82151 9.41796 34914 ft 503 kts
2026-05-06 14:11 55.89089 9.43454 34914 ft 503 kts
2026-05-06 14:11 55.96017 9.45116 34929 ft 503 kts
2026-05-06 14:12 56.02957 9.46786 34916 ft 503 kts
2026-05-06 14:12 56.09900 9.48462 34918 ft 504 kts
2026-05-06 14:13 56.16842 9.50146 34916 ft 504 kts
2026-05-06 14:13 56.23798 9.51838 34928 ft 505 kts
2026-05-06 14:14 56.30762 9.53538 34922 ft 505 kts
2026-05-06 14:14 56.37690 9.55237 34923 ft 506 kts
2026-05-06 14:15 56.44666 9.56953 34927 ft 506 kts
2026-05-06 14:15 56.51645 9.58677 34934 ft 507 kts
2026-05-06 14:16 56.58640 9.60410 34940 ft 507 kts
2026-05-06 14:16 56.65637 9.62151 34930 ft 508 kts
2026-05-06 14:17 56.72637 9.63899 34933 ft 507 kts
2026-05-06 14:17 56.78500 9.65369 34938 ft 508 kts
2026-05-06 14:18 56.85452 9.67117 34935 ft 508 kts
2026-05-06 14:18 56.92449 9.68883 34938 ft 508 kts
2026-05-06 14:19 56.99451 9.70657 34960 ft 508 kts
2026-05-06 14:19 57.06454 9.72438 34975 ft 508 kts
2026-05-06 14:20 57.13460 9.74226 34969 ft 508 kts
2026-05-06 14:20 57.20463 9.76021 34970 ft 508 kts
2026-05-06 14:21 57.27466 9.77823 35000 ft 508 kts
2026-05-06 14:21 57.34478 9.79633 34973 ft 509 kts
2026-05-06 14:22 57.41495 9.81452 34963 ft 509 kts
2026-05-06 14:22 57.48493 9.83273 34968 ft 509 kts
2026-05-06 14:23 57.55418 9.85083 34988 ft 509 kts
2026-05-06 14:23 57.62394 9.86912 34976 ft 509 kts
2026-05-06 14:24 57.68294 9.88465 34965 ft 509 kts
2026-05-06 14:24 57.74539 9.90114 34973 ft 509 kts
2026-05-06 14:25 57.80196 9.91613 34975 ft 509 kts
2026-05-06 14:25 57.85891 9.93127 34979 ft 510 kts
2026-05-06 14:26 57.91157 9.94530 34978 ft 511 kts
2026-05-06 14:26 57.98194 9.96412 34972 ft 512 kts
2026-05-06 14:27 58.05246 9.98307 34975 ft 512 kts
2026-05-06 14:27 58.12308 10.00212 34981 ft 513 kts
2026-05-06 14:28 58.19386 10.02129 34976 ft 514 kts
2026-05-06 14:28 58.26458 10.04052 34975 ft 514 kts
2026-05-06 14:29 58.33538 10.05985 34973 ft 514 kts
2026-05-06 14:29 58.40615 10.07925 34972 ft 514 kts
2026-05-06 14:30 58.47683 10.09870 34972 ft 513 kts
2026-05-06 14:30 58.54754 10.11823 34973 ft 513 kts
2026-05-06 14:31 58.61820 10.13784 34973 ft 513 kts
2026-05-06 14:31 58.68898 10.15756 34978 ft 514 kts
2026-05-06 14:32 58.75978 10.17736 34972 ft 514 kts
2026-05-06 14:32 58.83056 10.19724 34969 ft 514 kts
2026-05-06 14:33 58.90132 10.21720 34970 ft 514 kts
2026-05-06 14:33 58.97216 10.23428 34966 ft 512 kts 358°
2026-05-06 14:34 59.00776 10.23899 35096 ft 514 kts 357°
2026-05-06 14:34 59.04346 10.24299 35469 ft 513 kts 357°
2026-05-06 14:34 59.07897 10.24711 35924 ft 510 kts 358°
2026-05-06 14:34 59.11449 10.25158 35961 ft 514 kts 358°
2026-05-06 14:35 59.18556 10.26297 35955 ft 511 kts
2026-05-06 14:35 59.25569 10.28370 35601 ft 510 kts
2026-05-06 14:36 59.29084 10.29495 35241 ft 513 kts
2026-05-06 14:36 59.32605 10.30628 35015 ft 512 kts
2026-05-06 14:36 59.39632 10.32850 34954 ft 512 kts
2026-05-06 14:37 59.46699 10.35036 34953 ft 515 kts
2026-05-06 14:37 59.53844 10.37242 34950 ft 517 kts
2026-05-06 14:38 59.60912 10.39438 34939 ft 518 kts
2026-05-06 14:38 59.68026 10.41663 34932 ft 517 kts
2026-05-06 14:39 59.75127 10.43892 34932 ft 516 kts
2026-05-06 14:39 59.82217 10.46126 34932 ft 515 kts
2026-05-06 14:40 59.89285 10.48363 34926 ft 513 kts
2026-05-06 14:40 59.96328 10.50602 34927 ft 512 kts
2026-05-06 14:41 60.03353 10.52843 34927 ft 511 kts
2026-05-06 14:41 60.10369 10.55089 34925 ft 511 kts
2026-05-06 14:42 60.17379 10.57345 34924 ft 510 kts
2026-05-06 14:42 60.24380 10.59611 34923 ft 509 kts
2026-05-06 14:43 60.31375 10.61882 34927 ft 509 kts
2026-05-06 14:43 60.38378 10.64163 34923 ft 511 kts
2026-05-06 14:44 60.45397 10.66461 34922 ft 511 kts
2026-05-06 14:45 60.55931 10.69932 34924 ft 512 kts
2026-05-06 14:45 60.62955 10.72258 34970 ft 512 kts
2026-05-06 14:46 60.69993 10.74598 34941 ft 513 kts
2026-05-06 14:46 60.77041 10.76953 34930 ft 513 kts
2026-05-06 14:47 60.84088 10.79318 34930 ft 514 kts
2026-05-06 14:47 60.91149 10.81698 34962 ft 514 kts
2026-05-06 14:48 60.98173 10.84076 34932 ft 515 kts
2026-05-06 14:48 61.05244 10.86482 34924 ft 515 kts
2026-05-06 14:49 61.12214 10.88865 34930 ft 514 kts
2026-05-06 14:49 61.19272 10.91288 34931 ft 513 kts
2026-05-06 14:50 61.26318 10.93717 34926 ft 513 kts
2026-05-06 14:50 61.33358 10.96155 34924 ft 513 kts
2026-05-06 14:51 61.40387 10.98600 34928 ft 512 kts
2026-05-06 14:51 61.47415 11.01057 34947 ft 511 kts
2026-05-06 14:52 61.54422 11.03680 34956 ft 511 kts
2026-05-06 14:52 61.61424 11.06062 34952 ft 509 kts
2026-05-06 14:53 61.68433 11.08443 34934 ft 510 kts
2026-05-06 14:53 61.75434 11.10957 34914 ft 510 kts
2026-05-06 14:54 61.82393 11.13594 34952 ft 508 kts
2026-05-06 14:54 61.89390 11.15967 34944 ft 510 kts
2026-05-06 14:55 61.96404 11.18485 34951 ft 511 kts
2026-05-06 14:55 62.03413 11.21128 34954 ft 513 kts
2026-05-06 14:56 62.10415 11.24164 34964 ft 514 kts
2026-05-06 14:56 62.17415 11.27290 34953 ft 514 kts
2026-05-06 14:57 62.24408 11.30374 34946 ft 513 kts
2026-05-06 14:57 62.31387 11.33432 34948 ft 512 kts
2026-05-06 14:58 62.38362 11.36494 34961 ft 511 kts
2026-05-06 14:58 62.45334 11.39571 34941 ft 511 kts
2026-05-06 14:59 62.52306 11.42665 34934 ft 512 kts
2026-05-06 14:59 62.58099 11.45249 34885 ft 511 kts
2026-05-06 15:00 62.65066 11.48371 34886 ft 511 kts
2026-05-06 15:00 62.72031 11.51504 34912 ft 511 kts
2026-05-06 15:01 62.78871 11.54597 34934 ft 511 kts
2026-05-06 15:01 62.85837 11.57763 34932 ft 511 kts
2026-05-06 15:02 62.92794 11.60939 34955 ft 510 kts
2026-05-06 15:02 62.99739 11.64126 34965 ft 510 kts
2026-05-06 15:03 63.06674 11.67323 34955 ft 508 kts
2026-05-06 15:03 63.13584 11.70526 34969 ft 507 kts
2026-05-06 15:04 63.20324 11.73663 34954 ft 506 kts
2026-05-06 15:04 63.27215 11.76886 34982 ft 506 kts
2026-05-06 15:05 63.34104 11.80151 34969 ft 506 kts
2026-05-06 15:05 63.40856 11.84833 34975 ft 509 kts 16°
2026-05-06 15:06 63.47530 11.90179 34963 ft 510 kts 16°
2026-05-06 15:06 63.54208 11.95557 34965 ft 510 kts 16°
2026-05-06 15:07 63.60897 12.00877 34966 ft 510 kts 16°
2026-05-06 15:07 63.67592 12.06183 34964 ft 510 kts 16°
2026-05-06 15:08 63.74278 12.11500 34954 ft 509 kts 16°
2026-05-06 15:08 63.80959 12.16843 34957 ft 509 kts 16°
2026-05-06 15:09 63.87668 12.22243 34961 ft 508 kts 17°
2026-05-06 15:09 63.94314 12.27620 34958 ft 507 kts 17°
2026-05-06 15:10 64.00955 12.33018 34984 ft 506 kts 17°
2026-05-06 15:10 64.07580 12.38430 34983 ft 506 kts 17°
2026-05-06 15:11 64.14200 12.43867 34980 ft 505 kts 17°
2026-05-06 15:11 64.20815 12.49328 34970 ft 505 kts 17°
2026-05-06 15:12 64.27430 12.54814 34954 ft 506 kts 17°
2026-05-06 15:12 64.34049 12.60332 34947 ft 506 kts 17°
2026-05-06 15:13 64.40672 12.65883 34940 ft 507 kts 17°
2026-05-06 15:13 64.47297 12.71464 34933 ft 507 kts 17°
2026-05-06 15:14 64.53917 12.77070 34931 ft 506 kts 17°
2026-05-06 15:14 64.60526 12.82698 34940 ft 505 kts 17°
2026-05-06 15:15 64.67127 12.88346 34928 ft 505 kts 18°
2026-05-06 15:15 64.73719 12.94014 34940 ft 505 kts 18°
2026-05-06 15:16 64.80307 12.99708 34924 ft 504 kts 18°
2026-05-06 15:16 64.86883 13.05424 34922 ft 503 kts 18°
2026-05-06 15:17 64.93447 13.11158 34921 ft 503 kts 18°
2026-05-06 15:17 65.00004 13.16917 34914 ft 503 kts 18°
2026-05-06 15:18 65.06552 13.22699 34930 ft 502 kts 18°
2026-05-06 15:18 65.13098 13.28509 34924 ft 502 kts 18°
2026-05-06 15:19 65.19640 13.34344 34909 ft 502 kts 18°
2026-05-06 15:19 65.26182 13.40211 34905 ft 503 kts 18°
2026-05-06 15:20 65.32729 13.46115 34908 ft 503 kts 18°
2026-05-06 15:20 65.39278 13.52051 34909 ft 503 kts 18°
2026-05-06 15:21 65.45827 13.58020 34901 ft 503 kts 18°
2026-05-06 15:21 65.52368 13.64014 34902 ft 503 kts 19°
2026-05-06 15:22 65.58901 13.70032 34903 ft 502 kts 19°
2026-05-06 15:22 65.65427 13.76074 34916 ft 502 kts 19°
2026-05-06 15:23 65.71949 13.82148 34898 ft 502 kts 19°
2026-05-06 15:23 65.78457 13.88241 34893 ft 501 kts 19°
2026-05-06 15:24 65.84995 13.94396 34896 ft 500 kts 19°
2026-05-06 15:24 65.91486 14.00540 34890 ft 500 kts 19°
2026-05-06 15:25 65.97969 14.06709 34905 ft 500 kts 19°
2026-05-06 15:25 66.04451 14.12913 34890 ft 500 kts 19°
2026-05-06 15:26 66.10921 14.19137 34893 ft 499 kts 19°
2026-05-06 15:26 66.17384 14.25389 34906 ft 498 kts 19°
2026-05-06 15:27 66.23835 14.31665 34920 ft 498 kts 20°
2026-05-06 15:27 66.30286 14.37975 34910 ft 498 kts 20°
2026-05-06 15:28 66.36731 14.44313 34913 ft 498 kts 20°
2026-05-06 15:28 66.43177 14.50689 34910 ft 498 kts 20°
2026-05-06 15:29 66.49617 14.57093 34903 ft 498 kts 20°
2026-05-06 15:29 66.56054 14.63531 34912 ft 498 kts 20°
2026-05-06 15:30 66.62484 14.69997 34890 ft 498 kts 20°
2026-05-06 15:30 66.68908 14.76494 34885 ft 497 kts 20°
2026-05-06 15:31 66.75332 14.83028 34868 ft 497 kts 20°
2026-05-06 15:31 66.81740 14.89583 34872 ft 496 kts 20°
2026-05-06 15:32 66.91343 14.99473 34868 ft 497 kts 20°
2026-05-06 15:32 66.97784 15.06155 34863 ft 497 kts 20°
2026-05-06 15:33 67.04136 15.12783 34874 ft 496 kts 20°
2026-05-06 15:33 67.10527 15.19489 34868 ft 496 kts 20°
2026-05-06 15:34 67.16953 15.26270 34872 ft 496 kts 20°
2026-05-06 15:34 67.23336 15.33045 34870 ft 496 kts 21°
2026-05-06 15:35 67.29676 15.39813 34871 ft 496 kts 21°
2026-05-06 15:35 67.36058 15.46665 34871 ft 496 kts 21°
2026-05-06 15:36 67.41402 15.52435 34868 ft 496 kts 21°
2026-05-06 15:36 67.47776 15.59350 34883 ft 496 kts 21°
2026-05-06 15:37 67.54151 15.66310 34875 ft 496 kts 21°
2026-05-06 15:37 67.60521 15.73304 34868 ft 496 kts 21°
2026-05-06 15:38 67.66885 15.80333 34869 ft 496 kts 21°
2026-05-06 15:38 67.73242 15.87396 34871 ft 496 kts 21°
2026-05-06 15:39 67.79587 15.94486 34883 ft 495 kts 21°
2026-05-06 15:39 67.85917 16.01603 34876 ft 494 kts 21°
2026-05-06 15:40 67.89084 16.05177 34617 ft 498 kts 21°
2026-05-06 15:40 67.92281 16.08797 34094 ft 498 kts 22°
2026-05-06 15:40 67.95401 16.12703 33470 ft 495 kts 26°
2026-05-06 15:40 67.98425 16.16996 32902 ft 489 kts 27°
2026-05-06 15:41 68.01384 16.21353 32359 ft 483 kts 28°
2026-05-06 15:41 68.04301 16.25706 31847 ft 478 kts 28°
2026-05-06 15:41 68.07187 16.30016 31348 ft 472 kts 28°
2026-05-06 15:41 68.10044 16.34272 30843 ft 467 kts 28°
2026-05-06 15:42 68.12871 16.38469 30334 ft 462 kts 28°
2026-05-06 15:42 68.15675 16.42625 29812 ft 458 kts 28°
2026-05-06 15:42 68.18448 16.46736 29220 ft 453 kts 28°
2026-05-06 15:42 68.21191 16.50809 28720 ft 447 kts 28°
2026-05-06 15:43 68.23891 16.54829 28213 ft 441 kts 28°
2026-05-06 15:43 68.26565 16.58823 27650 ft 437 kts 28°
2026-05-06 15:43 68.29213 16.62788 27119 ft 432 kts 28°
2026-05-06 15:43 68.31825 16.66709 26650 ft 427 kts 28°
2026-05-06 15:44 68.34405 16.70594 26176 ft 422 kts 28°
2026-05-06 15:44 68.36959 16.74450 25714 ft 418 kts 28°
2026-05-06 15:44 68.39481 16.78268 25245 ft 413 kts 29°
2026-05-06 15:44 68.41980 16.82060 24799 ft 409 kts 29°
2026-05-06 15:45 68.44449 16.85817 24357 ft 405 kts 29°
2026-05-06 15:45 68.46897 16.89551 23910 ft 401 kts 29°
2026-05-06 15:45 68.49321 16.93257 23472 ft 398 kts 29°
2026-05-06 15:45 68.51720 16.96935 22966 ft 394 kts 29°
2026-05-06 15:46 68.54096 17.00587 22527 ft 389 kts 29°
2026-05-06 15:46 68.56437 17.04194 22094 ft 384 kts 29°
2026-05-06 15:46 68.58752 17.07770 21678 ft 380 kts 29°
2026-05-06 15:46 68.61043 17.11316 21262 ft 377 kts 29°
2026-05-06 15:47 68.63315 17.14842 20847 ft 373 kts 29°
2026-05-06 15:47 68.65592 17.18385 20426 ft 370 kts 29°
2026-05-06 15:47 68.67797 17.21822 20008 ft 368 kts 28°
2026-05-06 15:47 68.70017 17.25290 19586 ft 366 kts 28°
2026-05-06 15:48 68.72229 17.28753 19184 ft 365 kts 28°
2026-05-06 15:48 68.74427 17.32202 18776 ft 363 kts 28°
2026-05-06 15:48 68.76619 17.35652 18376 ft 362 kts 28°
2026-05-06 15:48 68.78807 17.39103 17935 ft 362 kts 27°
2026-05-06 15:49 68.80987 17.42549 17497 ft 361 kts 28°
2026-05-06 15:49 68.83160 17.45990 17070 ft 359 kts 27°
2026-05-06 15:49 68.85345 17.49458 16660 ft 356 kts 27°
2026-05-06 15:49 68.87490 17.52871 16245 ft 354 kts 27°
2026-05-06 15:50 68.89621 17.56270 15830 ft 353 kts 27°
2026-05-06 15:50 68.91744 17.59664 15413 ft 351 kts 27°
2026-05-06 15:50 68.93854 17.63043 15010 ft 349 kts 27°
2026-05-06 15:50 68.95952 17.66412 14645 ft 348 kts 27°
2026-05-06 15:51 68.98046 17.69781 14223 ft 347 kts 27°
2026-05-06 15:51 69.00133 17.73144 13837 ft 347 kts 27°
2026-05-06 15:51 69.02194 17.76471 13409 ft 347 kts 27°
2026-05-06 15:51 69.04280 17.79850 12975 ft 346 kts 27°
2026-05-06 15:52 69.06370 17.83303 12563 ft 342 kts 31°
2026-05-06 15:52 69.08219 17.87460 12171 ft 341 kts 41°
2026-05-06 15:52 69.09900 17.92124 11802 ft 340 kts 44°
2026-05-06 15:52 69.11539 17.96903 11382 ft 339 kts 44°
2026-05-06 15:53 69.13170 18.01647 10999 ft 337 kts 44°
2026-05-06 15:53 69.14784 18.06287 10616 ft 336 kts 43°
2026-05-06 15:53 69.16440 18.10991 10295 ft 332 kts 43°
2026-05-06 15:53 69.18049 18.15526 10166 ft 323 kts 43°
2026-05-06 15:54 69.19621 18.19945 10029 ft 316 kts 43°
2026-05-06 15:54 69.21157 18.24256 9888 ft 308 kts 43°
2026-05-06 15:54 69.22662 18.28484 9675 ft 303 kts 43°
2026-05-06 15:54 69.24131 18.32619 9509 ft 296 kts 42°
2026-05-06 15:55 69.25557 18.36642 9328 ft 285 kts 42°
2026-05-06 15:55 69.26956 18.40583 8806 ft 287 kts 42°
2026-05-06 15:55 69.28343 18.44498 8466 ft 284 kts 43°
2026-05-06 15:55 69.29752 18.48496 8057 ft 281 kts 43°
2026-05-06 15:56 69.31117 18.52383 7742 ft 277 kts 43°
2026-05-06 15:56 69.32495 18.56099 7423 ft 270 kts 36°
2026-05-06 15:56 69.34011 18.59124 7225 ft 261 kts 31°
2026-05-06 15:56 69.35496 18.61862 7090 ft 246 kts 31°
2026-05-06 15:57 69.36873 18.64439 6966 ft 229 kts 32°
2026-05-06 15:57 69.38141 18.66868 6912 ft 218 kts 32°
2026-05-06 15:57 69.39399 18.69302 6891 ft 220 kts 32°
2026-05-06 15:57 69.40661 18.71759 6805 ft 219 kts 32°
2026-05-06 15:58 69.41926 18.74110 6718 ft 207 kts 23°
2026-05-06 15:58 69.43240 18.75363 6639 ft 194 kts 12°
2026-05-06 15:58 69.44559 18.76263 6352 ft 198 kts 11°
2026-05-06 15:58 69.45899 18.77135 5985 ft 196 kts 11°
2026-05-06 15:59 69.47208 18.77978 5624 ft 190 kts 11°
2026-05-06 15:59 69.48484 18.78810 5269 ft 187 kts 12°
2026-05-06 15:59 69.49733 18.79629 4897 ft 182 kts 12°
2026-05-06 15:59 69.50935 18.80418 4609 ft 175 kts 12°
2026-05-06 16:00 69.52116 18.81188 4271 ft 173 kts 12°
2026-05-06 16:00 69.53274 18.81941 3949 ft 169 kts 12°
2026-05-06 16:00 69.54407 18.82685 3625 ft 165 kts 12°
2026-05-06 16:00 69.55509 18.83411 3315 ft 161 kts 12°
2026-05-06 16:01 69.56596 18.84126 3022 ft 161 kts 13°
2026-05-06 16:01 69.57695 18.84850 2720 ft 163 kts 13°
2026-05-06 16:01 69.58788 18.85571 2432 ft 159 kts 13°
2026-05-06 16:01 69.59845 18.86268 2111 ft 151 kts 13°
2026-05-06 16:02 69.60826 18.86917 1847 ft 140 kts 13°
2026-05-06 16:02 69.61769 18.87540 1581 ft 143 kts 13°
2026-05-06 16:02 69.62733 18.88173 1313 ft 141 kts 12°
2026-05-06 16:02 69.63676 18.88777 1021 ft 137 kts 12°
2026-05-06 16:03 69.64629 18.89429 788 ft 141 kts 12°
2026-05-06 16:03 69.65580 18.90068 552 ft 143 kts 12°
2026-05-06 16:03 69.66533 18.90684 278 ft 136 kts 13°
2026-05-06 16:03 69.67436 18.91293 54 ft 129 kts 13°
2026-05-06 16:04 69.68199 18.91800 36 ft 86 kts 13°
2026-05-06 16:04 69.68555 18.92037 31 ft 19 kts 13°
2026-05-06 16:04 69.68691 18.92127 27 ft 24 kts 13°
2026-05-06 16:04 69.68868 18.92245 29 ft 26 kts 13°
2026-05-06 16:05 69.69047 18.92365 27 ft 26 kts 13°
2026-05-06 16:05 69.69227 18.92486 27 ft 26 kts 13°
2026-05-06 16:05 69.69333 18.92641 30 ft 14 kts 30°
2026-05-06 16:05 69.69358 18.92554 27 ft 8 kts 202°
2026-05-06 16:06 69.69266 18.92512 27 ft 17 kts 191°
2026-05-06 16:06 69.69154 18.92436 27 ft 17 kts 193°
2026-05-06 16:06 69.69041 18.92362 27 ft 17 kts 193°
2026-05-06 16:06 69.68917 18.92279 28 ft 20 kts 193°
2026-05-06 16:07 69.68762 18.92176 31 ft 25 kts 193°
2026-05-06 16:07 69.68585 18.92058 29 ft 27 kts 193°
2026-05-06 16:07 69.68401 18.91935 35 ft 27 kts 193°
2026-05-06 16:07 69.68215 18.91807 36 ft 27 kts 194°
2026-05-06 16:08 69.68029 18.91680 41 ft 27 kts 191°
2026-05-06 16:08 69.67843 18.91565 42 ft 27 kts 193°
2026-05-06 16:08 69.67735 18.91437 42 ft 10 kts 250°
2026-05-06 16:08 69.67745 18.91220 40 ft 10 kts 284°
2026-05-06 16:09 69.67746 18.91204 40 ft 0 kts 284°
2026-05-06 16:12 69.67744 18.91023 39 ft 8 kts 253°
2026-05-06 16:12 69.67743 18.90934 39 ft 4 kts 277°
2026-05-06 16:12 69.67748 18.90848 39 ft 4 kts 282°
2026-05-06 16:12 69.67752 18.90793 39 ft 1 kts 283°